Overview Statistics Trail Chart Weather Telemetry Raw packets
 

This is the latest recevied weather packets stored in our database for station/object KL3RR-2. If no packets are shown the sender has not sent any weather packets the latest 10 day(s).

<< 44 45 46 47 48 49 50 >>
Time Temp. Humidity Pressure Rain* Wind** Luminosity Snow
1777412455 8.89° C 65% 1012.5 hPa - - - -
1777412154 8.89° C 64% 1012.5 hPa - - - -
1777411853 8.89° C 65% 1012.4 hPa - - - -
1777411552 8.89° C 68% 1012.5 hPa - - - -
1777411251 8.89° C 70% 1012.4 hPa - - - -
1777410950 8.33° C 71% 1012.3 hPa - - - -
1777410649 7.78° C 70% 1012.3 hPa - - - -
1777410348 8.33° C 68% 1012.3 hPa - - - -
1777410047 8.33° C 72% 1012.4 hPa - - - -
1777409746 8.33° C 71% 1012.2 hPa - - - -
1777409445 8.89° C 72% 1012.1 hPa - - - -
1777409144 8.89° C 71% 1011.8 hPa - - - -
1777408843 8.89° C 74% 1011.7 hPa - - - -
1777408542 8.33° C 75% 1011.6 hPa - - - -
1777408241 7.78° C 78% 1011.6 hPa - - - -
1777407940 7.78° C 80% 1011.5 hPa - - - -
1777407639 7.22° C 84% 1011.5 hPa - - - -
1777407338 6.67° C 85% 1011.5 hPa - - - -
1777407037 6.67° C 87% 1011.5 hPa - - - -
1777406736 6.11° C 87% 1011.4 hPa - - - -
1777406435 6.11° C 88% 1011.4 hPa - - - -
1777406134 6.11° C 88% 1011.3 hPa - - - -
1777405833 5.56° C 89% 1011.3 hPa - - - -
1777405532 5.56° C 89% 1011.3 hPa - - - -
1777405231 5° C 89% 1011.4 hPa - - - -

* Rain since midnight (hover to see other rain measurements)
** Current wind speed in m/s (hover to see current wind gust speed)